カタログに戻る

COSMOS 1363

運用中ナビゲーションLEO
NORAD 13166·PAYLOAD·🇷🇺 Russia

打ち上げ May 6, 1982 から Plesetsk Cosmodrome

Loading…

次のパス (今後24時間)

TLE

最新Source: Space-Track

元期: Sep 14, 2026, 22:30 UTC

1 13166U 82040G   26257.93782204 -.00000029  00000-0 -94720-4 0  9997
2 13166  74.0093  67.9529 0019895 300.0959 228.2722 12.44163277 14689

AllMySatでCOSMOS 1363をリアルタイム追跡

Download on the App Store